User: anonymous   Login
Location: Fort Wayne
(41.1310°N, 85.1290°W)
Time: 09:14:41
(UTC-05:00)
Language:

Cosmos 2082 - Orbit

View from above orbital plane
View from above orbital plane
View from above satellite
View from above satellite

Ground track
Ground track

The orbit data is extracted from the following two-line orbital elements,

1 20624U 90046A   14355.22237226  .00000042  00000-0  47070-4 0   941
2 20624 071.0429 316.9486 0016846 325.9824 127.8350 14.14125499268691
Epoch (UTC): 21 December 2014 05:20:12
Eccentricity: 0.0016846
inclination: 71.0429°
perigee height: 833 km
apogee height: 857 km
right ascension of ascending node: 316.9486°
argument of perigee: 325.9824°
revolutions per day: 14.14125499
mean anomaly at epoch: 127.8350°
orbit number at epoch: 26869

The dashed part of the orbit path shows where the satellite is in the earth's shadow,  

DLR